Location: Treviso
(45.6669°N, 12.2430°E)
Time: 08:16:55
(UTC+02:00)

ISS - Pass Details

Date: 25 May 2018
Orbit: 402 x 407 km, 51.6° (Epoch: 26 May)

Event Time Altitude Azimuth Distance (km) Brightness Sun altitude
Rises 21:58:45 0° 260° (W) 2,316 0.5 -10.7°
Reaches altitude 10° 22:00:53 10° 267° (W) 1,457 -0.4 -10.9°
Maximum altitude 22:04:02 44° 341° (NNW) 573 -2.6 -11.3°
Drops below altitude 10° 22:07:11 10° 55° (NE) 1,460 -1.1 -11.7°
Sets 22:09:19 0° 62° (ENE) 2,320 -0.1 -11.9°
